RH
89 78 78 80 75 68 58 54 49 43 36 30 30 36 45 48 49 54 53 50 48 49 47 66 81 37 18 19 75 66 55 6 6 7 7 8 25 33 41 40 36 25 17 9 7
63 64 51 40 32 25 20 13 8 5 4 3 3 3 4 8 12 26 42 48 51 47 50 41 62 61 47 39 13 51 70 17 8 6 7 11 23 34 42 42 38 28 15 9 9
6 6 5 5 4 3 3 2 4 4 4 3 3 2 2 2 2 3 6 14 38 46 48 50 45 55 50 62 48 12 38 56 48 24 7 8 30 35 42 51 37 31 20 10 10
7 6 5 4 4 3 3 4 5 3 2 2 2 1 1 1 2 2 2 2 6 20 39 46 52 50 46 59 61 43 19 14 49 62 24 7 25 23 27 49 30 40 24 11 10
8 7 6 4 4 4 6 5 3 2 2 2 2 2 2 1 1 1 1 1 2 3 10 26 44 49 50 43 57 56 57 19 9 26 67 22 7 25 24 34 20 30 18 8 9
10 8 6 6 6 7 6 4 3 2 2 2 2 2 2 2 2 1 1 1 1 1 2 4 15 42 48 55 52 41 48 38 15 8 39 70 31 9 15 24 17 26 14 10 8
12 10 9 9 8 6 4 4 4 2 2 2 2 2 2 2 2 1 1 1 1 1 1 2 3 9 40 46 54 47 42 47 30 13 8 34 82 32 8 16 19 12 12 12 10
10 10 10 9 9 5 5 5 4 3 2 2 2 2 2 2 2 1 1 1 1 1 1 2 2 3 11 38 43 54 49 45 40 35 17 8 24 58 30 11 10 9 11 9 6
10 10 10 10 7 6 6 6 5 3 3 3 3 2 2 2 2 3 2 2 2 1 1 2 2 2 3 14 43 42 53 45 31 43 40 17 13 20 36 52 34 39 9 9 6
10 10 10 8 6 6 7 7 4 3 3 3 3 3 3 3 4 3 3 2 2 3 2 3 4 2 2 3 20 42 46 55 38 45 59 47 35 11 11 26 45 44 35 12 6
11 10 9 8 8 8 8 6 4 3 3 4 4 4 4 4 5 13 24 22 7 4 5 4 5 4 2 2 6 30 46 44 60 52 64 69 59 46 12 12 13 31 60 53 21
12 11 10 9 9 9 8 5 4 3 4 4 4 4 5 6 8 57 44 74 90 48 12 12 5 4 4 3 3 7 41 44 42 50 46 59 83 63 49 21 14 12 18 45 63
15 13 10 9 10 9 7 6 4 4 5 5 5 7 8 9 23 42 67 84 66 88 99 18 6 5 5 4 4 4 14 48 45 29 29 48 67 71 73 65 36 20 14 16 27
18 16 12 10 10 9 8 6 5 4 5 6 7 8 8 10 35 56 73 95 100 83 100 57 12 7 6 5 4 5 5 33 55 39 32 71 86 58 60 85 87 49 33 21 14
20 16 14 12 11 10 10 8 6 5 6 7 9 10 10 13 11 49 65 76 100 100 95 100 97 47 10 5 6 4 6 13 56 57 41 60 97 60 58 68 86 71 64 44 21
24 23 16 14 13 12 12 10 7 6 6 8 9 12 11 12 13 55 55 56 93 94 100 97 85 100 13 6 6 5 21 47 68 88 74 38 93 60 96 84 76 84 53 55 54
27 27 22 17 16 15 14 12 7 5 6 7 9 13 13 12 15 13 31 41 64 76 100 100 98 100 77 24 19 24 21 94 75 98 89 70 78 51 81 97 81 90 94 67 65
24 24 29 23 19 19 17 14 8 6 6 7 10 14 16 13 16 16 18 54 66 86 100 100 100 99 100 76 47 93 93 78 43 86 81 90 97 51 50 81 100 91 86 97 58
22 26 28 31 24 24 20 17 10 6 6 8 10 13 17 17 15 17 20 14 48 60 82 100 95 100 100 88 58 100 100 100 85 93 78 84 90 87 69 83 86 97 100 100 95
16 22 26 33 30 27 24 20 15 7 6 8 9 11 15 19 17 15 18 18 18 52 60 86 82 98 87 86 76 100 100 100 100 100 61 56 75 100 96 85 96 100 99 93 94
14 18 26 31 35 29 27 24 21 10 7 9 10 12 15 18 21 18 17 21 20 20 52 59 79 98 100 100 100 100 100 100 100 100 99 79 100 100 85 94 84 97 93 87 95
14 16 25 27 32 32 31 28 27 18 12 12 12 13 14 16 20 22 19 18 19 19 32 39 59 84 100 100 100 100 97 100 100 100 100 100 100 92 85 92 88 90 84 81 76
13 15 27 29 31 36 34 31 30 27 21 19 18 17 18 18 18 20 24 20 18 18 18 28 43 70 100 97 92 92 99 100 100 82 93 80 100 100 100 100 100 100 89 92 100
16 15 21 30 29 34 36 35 33 33 28 28 27 24 24 24 23 20 24 25 22 19 20 18 20 26 40 70 100 100 100 100 100 100 79 100 99 100 100 100 100 100 100 100 99
14 18 19 25 33 29 35 35 36 37 36 32 30 26 28 27 28 24 23 27 26 23 18 20 20 13 15 31 35 59 69 85 100 96 92 97 94 100 100 100 100 99 99 100 100
10 17 21 17 29 32 32 41 39 39 40 40 34 31 30 26 29 28 25 24 23 30 25 19 20 18 20 13 15 39 54 33 46 61 76 80 76 100 100 96 100 100 100 100 94
10 13 17 20 22 32 37 42 44 43 42 41 38 34 36 32 32 31 26 27 27 30 31 26 19 19 22 20 20 22 22 45 60 58 49 66 69 78 97 100 100 100 98 95 97
Wind_Speed
16 18 19 21 22 24 25 27 28 30 32 34 36 38 40 42 44 47 47 47 48 53 55 51 61 52 47 50 58 56 54 53 50 50 43 37 43 28 21 36 43 40 37 39 37
16 18 18 19 20 20 20 19 18 19 21 24 27 31 35 39 44 50 50 51 54 51 54 55 59 68 58 52 54 61 61 51 48 48 46 39 45 35 30 31 37 45 41 41 39
6 7 9 10 10 10 11 12 13 18 21 24 27 31 34 38 42 45 48 54 56 55 54 56 58 63 68 66 57 56 59 54 53 45 49 44 47 41 37 26 40 47 47 38 39
3 4 5 6 7 8 10 15 19 22 25 28 29 34 39 43 48 50 51 54 57 62 61 59 60 64 64 68 62 64 54 54 55 52 50 52 52 54 52 37 45 37 47 43 42
6 5 5 6 8 12 16 18 22 25 28 31 35 39 42 47 51 59 60 57 56 60 64 67 65 65 64 65 67 66 58 56 54 58 56 50 53 59 59 51 49 47 50 50 50
11 11 10 11 14 16 16 21 25 28 31 34 39 45 50 55 59 60 65 68 66 61 65 66 68 68 70 70 73 64 59 63 60 58 60 62 52 59 61 62 59 52 53 54 52
12 12 14 15 14 15 18 22 26 29 33 38 44 50 56 59 61 63 66 71 73 73 68 70 71 75 73 74 70 67 71 65 65 58 58 61 67 57 54 65 64 60 56 56 50
11 12 13 13 13 15 19 24 28 31 35 40 46 51 57 61 62 63 63 68 74 74 76 72 75 79 78 75 73 74 74 76 66 61 58 62 66 60 65 56 57 56 57 56 56
14 13 13 13 14 18 23 27 30 33 37 43 48 52 56 55 56 57 61 61 67 75 73 71 79 81 78 79 76 75 78 76 68 65 62 66 62 56 58 69 60 55 54 54 56
17 16 14 13 15 19 24 28 32 35 38 44 48 54 55 52 49 47 45 50 55 68 68 68 71 81 82 80 83 77 75 75 70 65 64 66 61 55 56 66 67 63 58 54 56
17 15 14 15 18 21 25 30 32 35 39 45 49 52 49 48 45 36 29 27 36 51 63 62 67 75 80 78 79 75 74 73 73 64 66 67 65 59 59 66 62 60 67 60 52
15 16 16 17 18 20 25 27 30 34 40 44 49 51 53 53 35 23 22 19 19 20 39 55 62 65 68 71 74 74 76 74 70 68 62 65 67 63 61 63 61 58 57 60 62
16 17 18 19 18 18 23 28 31 34 40 44 50 51 52 51 33 16 17 19 25 14 18 42 55 54 62 65 65 70 71 72 69 61 62 58 65 67 66 66 60 57 57 57 56
16 18 20 21 19 19 23 27 31 34 39 44 46 46 47 48 22 22 18 21 20 8 9 21 39 49 55 61 61 65 62 64 65 59 60 51 52 67 67 61 62 62 60 58 56
16 17 18 21 21 20 24 29 32 35 40 43 44 46 44 43 41 20 12 18 13 8 14 14 21 30 49 56 54 58 56 58 59 56 56 57 50 54 57 48 47 57 64 61 58
16 17 17 20 22 22 23 27 31 34 38 40 42 41 41 40 40 19 17 24 19 5 5 17 22 23 39 48 51 50 47 51 48 46 61 64 62 51 45 44 45 43 57 60 58
15 17 17 17 20 22 23 26 30 32 36 41 41 40 41 40 38 36 21 18 12 5 10 8 22 21 28 39 43 41 46 43 55 52 52 52 61 69 30 45 46 46 45 49 52
13 17 17 17 18 22 23 25 29 31 35 39 41 40 38 39 37 36 25 13 12 9 6 11 16 17 22 31 42 42 36 41 49 56 55 49 45 52 58 51 47 52 42 45 55
14 15 17 17 18 20 22 24 27 31 33 36 39 40 38 37 37 35 33 24 9 9 8 18 17 6 27 25 36 37 33 38 39 40 58 54 42 22 41 54 51 42 48 51 50
14 15 18 17 18 18 21 22 25 29 31 35 38 40 38 37 36 35 34 31 17 9 9 15 19 8 24 23 32 39 37 30 47 30 48 52 56 40 34 55 63 60 54 55 57
15 15 17 17 17 18 19 21 23 27 30 32 36 37 37 36 35 35 33 29 27 11 7 15 20 18 6 24 32 43 41 35 36 35 18 33 47 39 43 55 55 62 69 65 53
17 15 15 17 18 17 19 21 22 25 28 30 33 36 37 36 34 33 33 30 25 26 6 11 15 20 12 6 17 35 39 46 37 38 41 24 33 42 53 53 55 60 57 62 68
20 16 15 16 17 18 18 20 21 22 26 29 31 33 34 35 34 32 31 30 27 23 20 5 20 9 6 12 14 11 19 20 45 51 33 49 41 20 50 41 53 39 53 63 63
22 19 18 17 17 18 18 18 20 21 23 27 28 30 31 31 35 33 30 28 27 24 18 15 7 20 25 24 20 12 17 17 30 48 61 37 56 53 25 28 45 53 47 41 53
24 21 18 18 17 18 19 17 19 20 21 24 27 29 30 29 31 32 30 27 26 24 20 14 7 6 17 27 32 39 27 27 34 39 54 46 49 48 44 42 41 50 57 52 53
26 23 20 19 18 18 20 18 17 20 20 21 25 27 29 30 31 30 29 29 26 24 21 17 13 6 10 13 22 31 31 43 41 35 43 52 52 52 53 53 51 55 57 59 62
28 26 23 22 20 18 19 19 18 18 21 21 22 26 26 27 27 29 28 29 27 22 22 21 18 13 7 14 8 10 18 27 32 35 40 44 49 51 52 48 53 56 58 58 59
Wind_Direction
236 236 237 243 250 256 261 264 266 267 268 269 268 266 263 260 257 256 257 254 249 243 244 244 245 245 245 240 243 245 243 229 225 228 222 217 194 198 247 251 257 251 233 238 244
258 251 247 249 252 255 258 260 265 273 277 278 275 272 269 265 262 259 254 251 254 249 246 242 241 246 244 245 241 246 238 225 232 231 227 213 201 203 212 239 247 249 236 233 239
224 227 234 237 237 237 246 261 272 288 285 282 281 279 276 272 267 260 256 253 250 250 246 245 241 241 244 246 244 242 245 232 231 233 232 217 206 204 219 237 227 245 241 231 241
248 228 226 234 243 254 264 275 292 293 290 288 287 287 283 280 276 265 258 254 251 247 247 244 242 240 240 242 246 242 242 244 238 235 232 228 212 215 218 212 223 239 241 232 236
295 285 273 263 274 290 291 296 303 303 299 295 292 291 290 285 279 274 266 257 250 250 246 244 242 240 240 240 241 241 236 243 239 237 235 237 222 222 222 227 227 232 233 227 228
297 288 290 296 293 297 305 307 305 306 308 305 301 299 296 290 282 276 269 263 255 244 243 245 243 240 236 237 239 241 236 236 236 236 234 235 235 227 230 235 235 235 236 235 233
301 292 288 291 298 310 313 315 317 317 314 310 307 306 301 295 288 280 270 262 256 251 241 239 240 239 236 235 236 237 238 233 231 233 234 236 233 234 223 235 240 245 245 250 247
316 303 297 293 296 311 320 324 321 319 318 316 313 313 307 301 292 282 270 263 255 249 245 236 235 238 236 236 235 234 235 235 233 233 234 234 239 233 225 230 242 243 247 246 250
331 318 304 300 298 309 316 320 324 325 323 322 320 318 314 307 297 288 278 265 254 248 242 235 232 232 233 233 232 232 235 238 234 235 235 237 239 238 238 240 236 241 240 241 248
332 328 316 307 307 310 317 326 329 327 328 324 323 323 324 321 312 297 284 271 254 244 242 234 231 230 229 229 230 231 233 235 236 235 236 237 238 235 236 240 236 235 238 239 240
336 335 320 313 314 320 326 333 332 330 328 329 331 332 329 332 323 306 303 292 273 246 236 232 228 228 226 229 230 229 230 233 232 236 238 238 238 233 232 237 239 237 237 239 235
343 347 339 326 322 326 332 334 335 334 333 334 335 339 343 343 337 312 312 295 292 272 240 228 229 228 226 229 227 228 229 228 230 230 236 236 241 234 233 236 238 239 238 240 240
339 342 344 340 332 335 340 339 340 338 340 341 343 349 348 350 341 339 333 320 301 283 271 235 229 223 225 226 226 226 227 226 229 229 232 235 241 238 234 236 232 235 238 237 238
325 332 343 347 339 341 346 343 343 343 345 346 349 351 350 355 344 328 327 334 311 257 272 239 227 224 220 224 224 223 226 227 226 229 230 227 234 234 239 240 240 231 234 238 235
314 320 335 344 342 336 344 347 347 347 347 350 354 354 357 359 357 333 309 348 331 265 249 231 226 224 223 221 222 223 221 224 226 225 228 220 228 238 239 238 235 241 233 236 239
314 311 322 337 343 339 342 347 349 351 351 354 358 358 0 358 7 316 313 322 341 277 232 240 207 224 224 221 216 215 215 218 220 227 227 227 226 216 223 222 222 233 242 236 237
320 316 311 328 340 342 341 348 351 352 353 354 0 360 2 0 3 7 337 320 329 297 265 225 209 188 218 218 211 206 213 216 211 216 224 232 227 234 220 212 221 222 233 237 234
328 332 312 316 335 341 344 350 350 352 355 356 1 4 3 2 4 9 7 326 327 324 279 189 197 183 206 219 205 196 201 214 222 217 221 222 234 241 235 228 226 234 221 219 230
316 335 328 312 325 336 343 350 349 350 356 359 1 5 5 4 4 6 13 4 335 338 268 212 206 178 195 222 202 200 204 207 213 226 222 220 224 212 217 225 226 227 226 224 225
303 323 336 323 317 329 338 348 349 347 355 359 2 4 6 7 7 5 10 17 4 325 291 254 223 166 211 209 203 204 207 204 210 212 226 225 228 237 209 213 221 223 231 239 230
297 312 329 330 315 322 330 342 348 346 353 359 1 6 5 9 7 6 10 12 16 342 309 254 255 256 326 197 207 210 214 212 215 209 193 223 217 220 226 226 225 229 232 230 230
289 299 316 331 322 317 324 331 342 347 348 357 359 3 6 10 9 8 6 11 17 16 319 256 266 259 275 279 184 209 220 220 222 211 210 192 213 227 234 233 241 238 233 232 235
280 287 299 316 325 318 319 321 333 343 345 350 356 359 5 6 15 11 7 6 11 20 18 307 243 257 218 270 256 243 224 197 220 224 221 216 215 212 225 218 226 232 234 226 225
270 280 290 303 318 322 314 317 319 332 342 345 351 354 1 4 8 13 10 6 7 13 17 25 313 259 263 257 245 259 272 258 205 210 211 209 216 228 207 222 220 218 222 220 233
263 273 281 291 305 316 315 313 314 319 330 340 344 350 354 358 6 11 7 7 1 4 8 7 358 328 266 263 260 251 253 237 233 235 218 224 219 217 226 230 238 243 237 239 233
258 266 274 285 293 305 315 314 313 313 322 331 337 343 348 352 357 5 8 6 5 356 356 357 352 325 268 279 272 268 260 258 260 247 240 232 224 243 244 240 240 245 247 243 241
258 261 270 278 284 294 306 318 313 316 317 325 331 336 343 345 349 354 5 1 359 360 348 345 342 340 268 267 261 274 265 256 256 255 260 247 242 254 254 257 246 239 235 238 244